Location: Chavannes
(47.1090°N, 0.2226°W)
Time: 14:50:44
(UTC+00:00)

Cosmos 489 Rocket - Pass Details

Date: 16 October 2021
Orbit: 953 x 983 km, 74.0° (Epoch: 06 December)

Event Time Altitude Azimuth Distance (km) Brightness Sun altitude
Rises 18:59:27 0° 337° (NNW) 3,642 7.9 -19.1°
Reaches altitude 10° 19:01:59 10° 337° (NNW) 2,691 7.2 -19.5°
Maximum altitude 19:08:13 88° 249° (WSW) 960 4.4 -20.6°
Enters shadow 19:13:43 14° 161° (SSE) 2,415 6.3 -21.5°
